Location: Casteau
(50.5142°N, 4.0161°E)
Time: 05:18:03
(UTC+00:00)

Vanguard 1 Rocket - Pass Details

Date: 05 August 2021
Orbit: 650 x 4226 km, 34.3° (Epoch: 21 September)

Event Time Altitude Azimuth Distance (km) Brightness Sun altitude
Rises 06:46:32 0° 205° (SSW) 8,460 12.1 21.9°
Reaches altitude 10° 06:54:16 10° 195° (SSW) 7,356 11.9 23.1°
Maximum altitude 07:11:38 26° 150° (SSE) 5,267 12.0 25.9°
Drops below altitude 10° 07:24:15 10° 103° (ESE) 5,335 13.1 27.9°
Sets 07:28:31 0° 91° (E) 5,848 12.7 28.5°
